STARLINK-32486, 61854

Orbit data source: Space-Track

STARLINK-32486, 61854 is a payload satellite owned by SpaceX/Seattle (US) in LEO that was launched on Thu, 07 Nov 2024 UTC via an FALCON 9 launch vehicle from the Air Force Eastern Test Range (AFETR). Payload-class satellites include a variety of spacecraft equipped with specific instruments for various scientific and technological missions. These include communications satellites like Starlink; space stations such as the ISS; scientific satellites like the Hubble; Earth observation satellites from companies like Planet Labs, Umbra, and HawkEye 360; GPS; miniature CubeSats for education and research; and military/defense satellites.

Loading next visibility...
Identifier
61854, 2024-202K
Orbit
LEO
Country
Flag of USUS
Related business
Manufacturer
SpaceX/Seattle
Mission
Operational Commercial Communications
Bus & Motor
STARLINK V2M, Unknown motor
Mass
730 kg wet, ~700 kg dry
Launch date (UTC)
2024-11-07 (1 year ago)
Launch vehicle
FALCON 9
Launch site
Air Force Eastern Test Range (AFETR)
Object type
Payload
Rocket body
Debris
Shape & HBR
Box + 2 Pan, 17.7 m
Radar Cross Section
33.884 m², Large (>1 m²)

Expand to show TLE details & history
Last TLE update: 20 hours ago

TLE from 20 hours ago
0 STARLINK-32486
1 61854U 24202K   25305.55451841  .00001305  00000-0  56950-4 0  9990
2 61854  43.0047 241.4087 0001449 260.7405  99.3283 15.27579086 55747
Epoch: 2025-11-01T13:18Z
TLE epoch observation values (Epoch: 2025-11-01T13:18:30.390Z)
Latitude
-0.00002°
Longitude
0.69913°
Altitude
482.989 km
Speed
7.626 km/s
True Right ascension
16h 05m 38s
True Declination
0° 00' 00"
Sunlit
Object was in daylight at epoch
Visualization orbit readout
Latitude
Unknown
Longitude
Unknown
Altitude
Unknown
Speed
Unknown
Apparent Right ascension
Unknown
Apparent Declination
Unknown
Sunlit
N/A
Visualization observer readout
Local Sidereal Time
05:11:03
Azimuth
Unknown
Elevation
Unknown
Doppler factor
Unknown
Orbital elements
Apogee altitude
485.991 km
Perigee altitude
484.002 km
Semi-major axis
6,863.133 km
Eccentricity
0.00014
Inclination
43.0047°
RAAN
241.4087°
Arg. of periapsis
260.7405°
True anomaly
99.34468°
Mean anomaly
99.3283°
Eccentric anomaly
99.33649°
Mean motion
3.81733 °/min
Orbital period
94.31 mins
BSTAR
0.00005695
Loading maneuver chart data...
Computing Atmospheric mass density...
Loading historical data...
Loading historical data...
Loading historical data...
Loading historical data...
Loading historical data...
Loading historical data...
Loading historical data...

Documentation

Showing up to 5 results
|